Wind_Speed
11 12 13 15 16 17 19 19 19 19 19 18 17 17 18 18 19 19 19 20 19 18 16 14 11 10 9 8 7 6 7 8 9 10 12 15 17 18 17 18 18 17 16 17 18 21 22 22 21 18 19 21 24 25 23 24 26 26 26 27 27 25 24 22 18 13 11 10 10 9 9 9 8 9 9 10 10 11 11 12 12 12 13 13 14
11 11 12 13 14 16 17 18 19 19 18 18 17 17 16 17 18 18 19 19 19 19 19 17 15 13 12 10 8 7 6 7 8 9 10 13 15 16 17 18 17 16 16 17 19 21 23 24 23 19 19 22 24 24 22 24 26 25 25 26 26 24 22 21 20 17 14 12 11 11 10 10 10 10 10 11 12 12 13 13 14 14 14 14 15
12 11 11 12 13 14 15 16 18 18 18 18 17 17 16 16 16 17 17 18 19 19 19 19 18 17 16 14 12 9 7 7 7 7 9 11 13 14 15 16 15 15 17 19 21 24 25 25 22 19 21 23 24 23 22 24 25 24 25 26 25 24 21 19 18 17 16 14 13 12 11 11 11 11 12 12 13 14 14 15 15 15 16 16 16
14 13 12 11 12 13 14 15 16 17 18 17 17 17 17 16 15 15 16 17 18 18 19 19 19 19 18 17 15 12 10 8 7 7 8 10 12 13 14 16 17 17 19 21 23 24 25 24 20 18 20 22 22 22 22 24 23 24 25 25 25 24 21 18 16 16 15 15 14 14 13 13 12 12 13 14 15 15 16 16 17 17 18 18 18
17 16 13 12 12 13 13 14 15 15 16 17 17 17 16 16 16 15 15 15 16 17 18 18 19 19 19 19 18 16 13 10 8 8 8 9 11 12 14 16 19 19 20 21 22 23 23 22 19 18 19 20 20 21 22 22 22 24 25 26 26 24 22 17 15 15 15 14 14 14 14 14 14 14 15 15 16 17 18 18 18 19 19 20 20
18 17 15 13 13 13 13 14 14 15 15 16 16 16 16 16 16 16 15 14 14 15 16 17 18 18 18 18 19 18 17 14 11 10 9 9 10 11 12 14 17 18 19 20 21 21 21 20 19 18 20 20 21 21 21 22 24 26 25 27 26 23 22 18 15 15 15 15 15 15 15 15 15 16 16 17 18 18 19 20 20 20 21 21 22
21 19 17 15 15 14 14 14 14 14 15 15 16 16 16 16 16 16 15 15 14 14 14 15 17 17 18 18 18 19 18 18 16 14 12 11 11 11 11 12 14 15 17 18 19 20 20 20 20 20 22 22 22 21 21 24 26 27 26 27 27 23 20 19 18 17 16 16 16 15 15 15 15 16 16 18 19 19 20 21 21 22 23 23 23
23 21 19 18 17 16 16 15 15 15 15 15 15 16 16 16 16 16 16 15 15 14 14 14 15 16 17 18 18 18 18 18 18 17 16 15 14 13 12 12 13 14 15 16 18 18 19 19 20 21 23 24 23 22 23 26 27 26 25 26 26 22 19 19 20 19 19 18 17 16 16 16 16 16 17 17 18 19 20 21 22 23 24 24 25
25 23 21 21 19 19 18 17 16 16 16 15 15 16 16 16 16 16 16 15 15 15 14 14 15 16 17 17 17 18 18 18 18 18 18 17 16 15 13 12 13 13 14 14 16 17 17 17 18 20 22 23 24 24 25 26 25 24 24 25 25 22 20 20 21 21 21 21 20 19 18 18 17 18 17 17 18 19 20 21 22 23 24 25 26
28 26 24 23 22 21 21 20 18 18 17 17 16 16 16 16 17 17 16 16 15 16 16 15 14 15 16 17 17 17 18 18 18 18 18 17 17 16 16 15 15 14 14 14 14 15 15 16 17 18 19 21 22 22 23 23 23 23 23 24 23 22 21 21 22 23 23 22 21 21 21 20 20 19 18 18 18 18 19 19 20 22 23 24 26
31 29 27 26 24 24 23 22 21 20 19 18 18 17 17 17 17 17 17 17 16 16 17 17 16 15 15 16 17 17 17 18 18 18 18 17 17 17 16 16 16 16 16 15 15 15 15 15 15 16 17 18 19 19 20 20 21 22 22 23 23 22 21 22 22 23 23 23 22 22 22 22 21 20 20 19 19 18 18 19 19 20 21 22 24
35 32 30 29 27 27 26 25 23 22 21 20 20 19 18 18 18 18 18 18 18 18 18 18 18 16 15 15 15 16 17 18 18 17 17 17 17 17 17 16 16 16 16 16 16 16 15 15 14 15 15 16 16 17 18 18 19 19 20 21 22 22 22 22 22 22 22 22 22 22 22 22 21 21 21 20 20 20 19 19 19 20 21 21 22
37 35 33 31 30 30 29 27 26 25 24 22 22 21 20 20 19 19 19 19 19 19 19 19 19 18 18 17 17 16 17 18 18 18 18 18 18 18 18 17 16 16 16 16 16 16 16 16 15 15 15 15 15 16 16 17 17 18 18 19 20 21 22 22 22 21 21 21 21 21 21 21 21 21 21 21 21 20 20 20 21 21 21 21 22
40 38 37 35 33 32 32 30 29 28 26 25 24 23 22 22 21 21 20 20 20 20 20 20 20 21 21 20 20 19 18 18 18 18 18 18 19 19 19 18 17 16 16 17 17 17 17 16 16 16 16 16 16 16 16 16 16 17 17 18 18 19 20 21 21 21 20 20 20 20 20 20 20 21 21 21 21 21 21 21 22 22 22 22 22
42 41 40 38 36 35 34 33 32 30 29 27 26 25 24 24 23 22 22 22 21 21 21 21 21 22 23 23 23 22 20 19 19 19 19 19 19 19 20 20 19 18 17 17 18 17 18 17 17 17 17 17 17 17 17 17 17 17 18 18 18 18 19 20 20 21 21 21 21 21 21 21 21 21 21 21 21 21 21 22 22 22 22 22 22
44 43 43 42 40 38 37 36 35 33 31 30 29 28 27 26 26 25 24 23 23 22 22 22 23 24 24 25 24 24 22 21 20 20 20 20 20 20 20 21 21 20 19 19 18 18 19 19 19 19 19 19 19 19 19 18 18 18 19 19 19 19 19 19 20 20 21 21 21 21 21 21 21 21 21 21 22 22 22 22 22 22 22 22 22
46 45 46 45 44 42 40 38 37 36 35 33 32 31 30 29 28 28 27 25 25 24 24 24 24 24 25 25 25 25 25 24 23 22 22 22 22 22 22 22 22 22 22 21 20 20 20 20 20 20 20 20 20 20 20 20 19 19 20 20 20 19 19 19 20 20 20 21 21 21 21 21 22 22 22 22 23 23 23 23 23 23 23 23 23
48 48 48 47 47 46 44 42 39 39 38 36 35 34 33 32 31 30 29 28 27 27 27 26 26 26 26 26 26 27 27 27 26 26 25 25 24 24 24 24 24 24 24 23 23 23 22 22 22 22 22 22 22 22 22 22 21 21 21 21 21 21 21 21 21 21 22 22 22 22 22 23 23 23 23 24 24 24 25 25 25 25 25 25 25
52 50 49 49 49 48 47 45 43 41 40 39 39 38 37 36 35 33 32 31 30 30 29 29 28 28 28 27 27 28 28 28 28 28 28 28 27 27 27 26 26 26 26 26 25 25 25 24 24 24 24 23 23 23 23 23 23 23 23 23 23 23 23 23 23 23 23 24 24 24 24 24 25 25 25 25 26 26 26 27 27 27 28 28 28
55 53 52 52 51 50 50 49 47 45 43 42 41 41 41 40 38 36 35 34 33 32 32 31 31 30 30 30 30 29 29 30 30 30 30 30 30 30 30 29 29 29 29 28 28 28 27 27 26 26 26 25 25 25 25 25 24 24 24 25 25 25 25 25 25 25 25 26 26 26 26 26 27 27 27 27 28 28 29 29 29 29 29 30 30
58 57 55 54 53 52 52 51 50 48 47 45 43 43 43 43 41 40 38 36 35 34 34 34 33 33 33 33 32 32 32 32 32 32 32 33 33 33 33 32 32 32 32 31 31 31 30 30 29 29 28 28 28 28 28 27 27 27 27 27 27 27 27 27 27 27 28 28 28 28 28 29 29 29 30 30 30 31 31 31 32 32 32 32 33
61 60 58 57 55 54 53 53 52 51 49 48 46 45 45 45 44 42 40 39 38 37 37 36 36 36 35 35 34 34 34 35 35 35 34 35 35 36 36 35 35 35 35 34 34 34 34 34 33 32 31 31 31 31 31 30 30 30 30 30 30 30 29 30 30 30 31 31 31 31 31 32 32 32 33 33 33 34 34 34 35 35 35 36 36
63 62 60 59 59 57 55 54 53 52 52 51 50 48 47 47 46 45 44 43 42 41 40 40 39 39 39 38 38 38 38 38 38 37 37 37 37 38 38 38 38 38 38 37 37 38 38 37 37 36 35 35 35 34 34 34 33 33 33 33 33 33 33 33 33 33 34 34 34 34 35 35 35 36 36 36 37 37 37 38 38 38 39 39 39
65 64 63 62 61 59 57 56 55 55 54 54 53 52 50 49 47 47 46 46 46 44 44 43 43 43 42 42 42 41 41 41 40 40 40 40 40 40 40 40 40 41 41 41 41 41 41 40 40 39 39 39 38 38 38 37 37 37 37 37 37 36 36 36 35 36 37 37 37 37 38 38 38 39 39 40 40 40 40 41 41 42 42 43 43
66 66 66 64 62 61 59 58 58 57 57 57 57 55 54 52 50 49 48 48 48 48 47 47 46 46 45 45 45 44 44 43 43 43 43 42 42 42 42 42 43 43 44 44 44 44 44 43 43 42 42 42 41 41 41 41 41 41 40 40 40 40 39 39 39 39 40 40 40 41 41 41 42 42 42 43 43 44 44 44 45 45 46 46 47
69 68 67 66 64 63 62 61 61 61 60 60 59 58 57 55 53 52 50 50 51 50 50 50 50 49 48 48 48 47 47 46 46 45 45 45 45 45 45 46 46 46 46 46 47 47 47 47 46 46 45 45 45 44 44 44 44 44 44 44 44 43 43 43 42 42 43 43 44 44 44 45 45 45 46 46 46 47 47 47 48 49 49 50 50
72 71 69 68 66 65 64 64 64 63 62 62 61 60 60 59 57 55 54 53 52 52 52 53 52 52 51 51 51 50 50 49 49 49 48 48 48 48 48 49 49 49 49 49 49 49 49 49 49 49 49 49 48 48 47 47 47 47 47 47 47 47 47 47 46 46 47 47 47 48 48 48 49 49 49 49 50 50 51 51 52 52 53 54 54
76 75 73 70 69 68 68 68 67 66 65 64 64 63 62 61 60 58 57 55 55 54 55 55 55 54 54 54 54 53 53 53 52 52 52 51 52 52 52 52 52 52 52 52 52 52 52 52 51 51 51 52 52 51 51 51 51 51 51 50 50 50 50 50 49 49 49 50 50 51 51 51 52 52 53 53 54 54 54 54 55 56 56 57 58
78 78 76 74 72 71 71 71 70 68 68 67 66 65 64 64 63 61 59 58 57 57 57 57 56 56 56 56 56 56 56 56 56 56 55 55 55 55 55 55 55 55 55 55 55 55 55 55 55 54 54 54 54 54 54 54 54 54 54 54 53 53 53 53 53 52 52 53 54 54 54 55 55 55 56 56 57 57 58 58 58 59 59 60 61
80 79 79 77 76 74 74 73 72 72 71 70 70 69 67 66 65 64 62 61 60 60 59 58 58 58 58 58 58 59 59 59 59 59 59 58 58 58 58 58 58 58 58 58 58 58 58 58 58 58 57 57 57 56 56 56 56 56 56 56 56 56 56 56 56 55 55 56 57 57 58 58 58 59 59 60 60 61 61 61 62 62 63 63 64
82 82 81 80 79 78 77 76 75 74 74 73 72 71 70 69 68 66 65 64 63 63 62 61 60 60 60 60 60 61 61 62 62 62 62 61 62 62 62 62 62 62 62 61 61 61 61 61 61 61 61 60 60 59 59 59 59 59 59 59 59 59 59 59 59 58 58 59 60 61 61 61 61 62 62 63 63 64 64 64 65 65 65 66 66
84 83 83 82 81 80 79 78 77 76 76 75 75 74 73 72 70 68 67 66 65 65 64 64 63 63 63 63 62 63 63 64 64 65 65 64 65 65 65 65 66 66 66 65 65 64 64 64 64 64 64 63 63 63 62 62 62 62 62 62 62 62 62 62 62 62 63 62 63 64 64 64 64 65 65 65 66 66 67 67 67 68 68 69 69
86 85 84 83 83 82 82 81 79 78 78 78 78 77 76 75 73 71 69 68 67 67 67 67 67 67 67 66 66 66 66 66 67 67 67 67 67 67 67 68 69 69 70 69 69 68 68 67 67 66 66 66 66 66 66 66 65 65 65 65 65 66 66 65 65 66 67 66 66 67 67 67 68 68 69 68 69 69 70 70 71 71 72 72 73
88 87 86 85 85 84 84 83 82 81 81 81 80 79 79 78 76 74 72 71 71 71 71 71 71 71 70 70 69 69 69 68 69 69 69 69 69 69 69 69 71 72 73 73 72 72 71 70 70 70 69 69 69 69 69 69 69 69 68 69 69 69 69 69 69 70 70 70 70 70 70 70 71 72 72 72 73 73 73 73 74 75 75 76 77
90 88 87 87 87 86 86 85 84 83 83 82 82 81 81 80 79 77 76 75 75 74 74 75 75 74 73 72 71 71 70 70 70 71 71 71 71 71 71 71 72 74 75 76 75 75 74 74 73 73 73 72 72 72 72 72 72 72 72 72 73 73 72 72 73 73 73 73 73 73 73 73 74 75 75 75 76 75 76 76 77 77 78 79 80
92 90 88 88 88 88 89 88 87 86 85 85 84 83 83 82 81 80 79 78 77 77 77 77 76 75 73 73 73 72 72 72 73 73 73 74 74 74 74 74 75 76 77 78 78 77 76 76 75 75 75 74 74 74 74 74 74 74 73 74 75 75 74 75 75 75 75 75 76 76 76 76 76 76 77 77 77 77 77 77 77 78 79 80 80
94 92 89 90 90 90 91 91 89 88 87 87 86 85 85 84 83 82 81 79 78 78 77 77 76 75 75 75 75 74 75 75 75 75 75 76 77 77 77 77 77 78 79 80 80 80 79 78 78 77 77 76 76 76 76 76 76 76 76 76 77 77 76 76 77 77 77 77 77 78 78 79 79 79 79 80 80 80 80 80 80 80 81 82 84
96 94 92 91 92 92 93 94 92 91 90 88 87 85 85 84 83 83 82 80 80 79 79 78 78 77 77 77 77 76 76 77 77 78 78 79 80 80 80 80 80 80 81 82 82 82 82 81 81 80 80 80 80 80 79 79 79 79 79 79 79 79 78 79 79 79 80 80 80 81 81 82 83 83 83 84 84 85 85 86 86 86 87 88 89
98 97 95 94 93 92 93 94 94 92 91 90 88 86 85 85 84 84 84 83 82 81 80 79 79 78 78 78 78 77 78 79 80 81 82 82 82 82 82 82 82 82 82 83 83 83 83 83 83 83 83 82 82 82 82 82 82 81 81 81 81 81 81 81 82 82 83 83 84 84 85 85 86 87 87 88 89 89 90 91 92 92 93 93 93
99 98 98 97 96 94 95 97 96 93 93 92 91 89 88 88 88 88 88 87 86 85 83 81 80 79 79 79 80 81 82 83 84 84 84 83 83 83 83 83 83 83 83 83 84 84 84 84 84 84 83 83 83 84 84 84 84 84 83 83 84 84 84 84 85 86 86 87 87 88 88 88 89 90 90 91 92 93 94 95 96 96 97 97 97
102 100 100 99 97 95 95 97 96 94 94 94 93 92 91 90 90 90 91 90 89 87 85 83 82 82 82 83 85 86 87 87 87 86 85 84 84 84 84 84 84 84 84 85 85 85 85 85 85 85 85 85 85 86 86 86 86 86 86 86 87 88 88 88 88 89 90 90 91 91 91 91 92 93 94 95 95 96 97 98 99 100 100 101 101
104 103 102 101 98 95 93 93 93 92 93 93 92 91 91 90 89 87 88 89 88 87 87 87 87 87 88 89 90 90 89 88 87 86 84 84 84 85 85 85 85 85 85 86 86 86 86 87 87 87 87 87 87 87 88 88 88 88 88 89 89 91 91 91 91 91 92 92 92 93 94 94 95 96 97 98 99 100 101 101 102 103 104 105 105
107 105 104 102 101 98 96 95 93 92 92 92 91 90 90 90 89 87 87 89 90 90 91 92 92 92 92 92 92 91 90 89 88 87 86 86 86 86 85 85 85 85 85 85 86 86 86 87 87 88 88 88 89 89 89 90 90 91 91 91 91 92 93 93 92 93 93 94 95 96 97 98 98 99 101 102 103 104 105 105 106 107 109 110 110
109 109 107 105 103 102 101 99 97 95 94 93 92 91 90 90 91 92 92 94 95 94 94 94 93 93 93 92 91 91 90 89 88 88 88 88 87 86 85 84 84 84 84 84 85 85 85 86 86 86 87 88 88 89 90 90 91 92 92 92 93 93 94 94 95 95 96 98 99 100 101 102 102 103 104 105 106 107 108 109 110 111 112 113 114
112 112 112 110 109 106 105 103 101 99 98 97 95 93 92 92 93 95 96 97 97 95 93 92 91 91 91 89 88 88 87 86 85 86 86 86 86 85 85 84 84 83 83 83 83 84 84 84 85 85 86 86 87 88 89 90 91 92 93 94 94 95 96 97 98 99 100 101 102 102 103 105 106 106 107 108 110 111 111 112 113 114 115 117 117
114 114 114 113 112 110 107 105 102 101 100 99 98 96 94 93 93 93 94 95 94 91 89 88 88 87 86 84 83 83 83 82 82 83 83 84 85 85 85 84 83 83 83 83 84 84 85 85 86 87 87 88 89 90 91 93 94 94 95 96 97 97 98 99 99 100 101 102 103 103 104 106 108 109 110 111 112 113 114 115 115 116 118 119 119
114 114 115 114 113 111 109 106 103 101 100 98 98 96 93 91 90 89 89 89 88 86 84 83 83 82 81 80 80 80 80 80 80 82 83 84 85 85 85 84 84 84 84 84 85 86 87 88 89 90 91 92 93 93 94 95 95 96 96 97 97 98 98 99 100 101 102 103 104 105 105 107 109 110 112 113 114 115 116 116 117 118 120 120 121
113 113 114 113 112 111 109 107 104 102 100 97 95 93 92 90 88 87 85 84 82 81 80 80 79 77 77 77 77 78 79 80 81 83 84 85 85 85 85 84 85 85 86 86 88 89 90 91 92 93 93 94 94 94 95 95 96 96 97 98 99 99 100 101 101 102 103 104 106 108 108 110 111 112 114 115 116 117 117 118 119 120 122 122 122
110 111 111 110 109 109 108 107 104 101 98 96 94 92 91 90 88 86 84 81 79 78 78 77 76 75 75 76 76 77 78 80 81 82 83 84 84 84 84 84 85 86 87 89 90 91 92 93 93 93 93 94 94 95 96 96 97 98 99 100 101 101 102 102 103 104 105 106 107 109 111 113 115 116 116 116 117 118 119 120 121 122 123 124 124
108 108 107 107 106 106 105 104 102 100 97 94 92 90 88 87 86 85 83 82 80 79 77 76 75 75 76 77 78 79 79 80 81 82 83 84 84 84 85 86 87 88 89 90 91 91 92 92 92 93 93 94 95 96 97 98 98 99 100 101 101 102 103 104 106 107 108 109 109 111 112 114 115 117 118 118 119 120 121 122 123 125 126 127 128
107 106 105 104 104 104 103 101 99 98 96 94 92 90 88 86 85 84 83 82 81 80 78 77 75 75 76 77 77 78 78 78 79 80 82 84 84 84 84 85 86 87 88 88 89 90 90 90 91 92 93 95 96 97 98 99 99 100 101 102 103 104 106 107 109 110 111 111 112 113 114 115 115 117 118 120 121 123 124 125 126 128 129 130 131
Wind_Direction
331 341 345 348 353 356 360 3 6 7 5 4 5 8 11 14 17 17 17 18 18 15 12 5 356 347 341 335 325 309 296 289 287 280 272 277 281 284 286 289 299 307 301 291 287 290 295 302 311 315 311 314 319 321 322 326 331 337 342 347 350 349 346 344 339 329 319 315 313 308 304 302 298 292 287 283 280 277 276 275 275 275 275 276 277
316 329 332 337 344 348 354 357 359 1 3 2 1 3 5 8 12 15 16 16 16 16 14 11 5 357 350 343 335 322 305 290 282 276 268 269 273 277 279 283 292 297 292 286 285 289 295 302 307 307 307 312 315 314 317 322 327 333 337 342 347 347 345 341 338 335 327 320 314 312 307 302 298 294 289 285 283 280 278 277 276 276 275 275 276
301 315 319 324 332 338 344 350 352 354 357 358 358 358 359 1 4 9 12 14 13 13 14 14 11 7 2 356 349 339 325 306 289 278 272 270 271 272 274 279 284 279 277 280 284 290 297 304 307 307 310 312 310 310 313 318 324 330 332 337 344 345 343 339 336 334 331 327 318 312 307 302 298 292 288 284 282 281 280 279 278 278 277 277 277
291 301 306 310 319 327 334 341 344 347 350 351 353 355 355 355 356 359 4 10 11 11 11 12 13 12 10 6 2 356 345 330 313 294 280 274 272 272 275 282 284 279 277 282 288 295 300 305 306 304 309 310 309 308 310 315 322 327 328 332 339 342 340 336 334 332 329 329 325 317 309 302 297 292 288 283 281 280 279 279 279 279 279 279 279
285 292 295 295 306 314 322 330 335 338 343 344 346 349 351 351 350 351 354 360 5 7 8 9 10 11 12 11 9 6 1 351 335 316 298 286 281 279 278 279 281 285 287 290 295 299 303 306 303 297 299 305 306 305 307 314 321 324 324 327 333 337 337 334 330 331 329 328 326 321 315 307 301 296 291 286 283 280 278 277 277 278 278 279 279
277 283 285 284 292 302 309 317 323 327 333 338 339 341 343 346 346 346 346 348 353 358 1 4 6 7 8 9 9 9 8 3 353 338 321 307 298 293 287 282 281 286 290 293 297 300 302 304 303 297 298 303 305 305 307 313 316 317 318 320 326 331 333 334 331 328 328 327 326 322 319 314 309 303 298 293 288 284 281 279 278 277 277 278 279
272 276 276 276 282 289 297 305 311 315 321 328 332 334 335 338 340 341 341 340 342 345 350 355 358 0 2 4 5 6 7 6 2 356 347 335 321 311 304 295 289 289 290 293 295 297 298 299 298 297 299 303 306 306 308 310 311 313 313 316 321 325 327 330 330 327 325 325 325 324 321 318 315 311 306 301 296 291 287 283 281 279 279 279 279
268 270 269 272 277 280 286 294 299 304 309 316 322 325 327 329 333 335 336 336 335 336 339 344 347 350 353 356 359 1 2 2 2 1 360 355 345 335 325 312 301 297 295 294 294 294 294 293 291 288 291 298 303 305 307 309 310 310 310 311 316 321 323 324 325 326 324 323 322 322 321 319 317 314 310 306 301 296 292 288 285 283 281 280 280
264 265 266 269 272 274 278 284 289 294 298 303 310 315 320 322 325 326 328 329 330 330 331 335 339 341 343 347 350 353 354 356 357 359 1 0 356 351 344 333 322 314 309 303 298 296 294 292 288 285 285 292 299 302 302 304 307 307 306 307 312 316 319 322 322 322 322 321 320 318 318 316 314 313 311 307 304 300 296 292 289 287 284 282 281
262 262 264 266 268 270 274 278 281 285 289 294 299 305 311 315 318 320 320 321 322 323 324 326 330 334 336 338 341 343 346 348 349 351 355 356 356 354 353 350 344 337 330 322 313 306 302 298 293 290 288 290 295 296 296 297 301 304 303 304 309 314 317 318 318 318 319 319 318 315 314 313 312 311 310 307 305 302 298 295 292 290 288 285 283
261 261 261 263 265 266 269 273 275 278 282 286 290 294 300 305 310 313 314 313 313 315 318 319 321 324 328 331 333 334 335 338 341 343 345 347 348 350 353 355 354 350 345 339 332 323 317 312 305 300 297 295 295 295 296 298 299 301 302 305 309 313 315 315 314 314 316 317 315 313 311 310 309 308 308 307 305 302 298 295 294 293 292 290 288
261 261 260 261 262 263 265 268 270 273 275 278 283 286 292 296 301 304 306 308 309 310 312 315 316 315 317 321 324 325 326 327 330 334 336 338 340 342 345 349 352 352 350 347 344 339 333 328 323 316 309 305 301 300 300 301 301 302 303 305 308 312 315 315 313 313 313 314 312 310 308 307 306 305 305 305 304 302 299 297 295 294 294 294 293
261 261 261 261 261 262 263 264 266 269 270 272 276 281 285 288 292 296 299 302 307 308 310 311 311 311 310 310 311 314 317 320 322 325 328 330 332 333 335 337 342 344 345 346 346 344 342 339 334 329 323 318 313 310 308 308 308 308 308 309 311 314 315 314 315 315 315 314 311 309 308 306 304 304 304 304 304 302 301 299 298 297 296 296 296
261 261 261 261 261 261 262 262 263 265 267 269 271 275 280 282 284 289 293 296 300 304 307 308 307 307 308 308 307 306 308 312 316 319 321 323 324 326 327 328 329 332 335 336 338 338 339 338 337 336 333 329 326 322 321 321 320 319 319 320 320 319 318 318 320 322 322 321 318 316 313 311 309 308 308 307 305 303 302 301 301 300 299 299 298
262 261 261 261 261 261 261 261 262 262 264 266 268 271 274 276 278 282 286 290 293 296 301 303 304 305 307 308 307 305 302 305 308 310 312 314 316 317 318 318 318 320 323 325 326 328 329 329 331 332 333 333 332 331 331 331 332 332 332 332 331 329 328 328 329 329 329 327 324 322 319 316 314 312 310 309 308 306 305 305 304 304 304 303 301
262 261 260 260 260 261 261 261 261 262 263 264 266 268 270 271 274 277 279 283 287 289 293 297 301 304 306 306 306 304 300 299 299 301 302 304 306 307 309 309 310 311 313 315 317 318 319 321 322 325 326 328 329 329 330 332 334 335 335 335 335 334 334 334 333 331 329 327 325 323 320 318 316 314 313 312 311 311 310 310 309 309 309 308 307
261 260 259 259 260 261 261 261 262 263 263 263 264 265 267 268 270 273 276 278 282 285 287 290 295 300 302 302 301 301 299 298 296 295 295 296 297 298 299 301 303 305 306 308 310 311 312 314 315 317 319 320 321 322 322 324 326 327 328 328 329 329 329 330 329 328 327 326 325 323 322 321 320 318 317 316 315 315 314 314 314 313 313 312 311
260 259 259 259 260 261 262 261 261 262 263 264 264 264 264 266 268 270 272 275 278 282 285 286 289 293 296 297 297 297 297 296 294 292 290 291 291 292 293 294 297 298 299 301 304 306 307 308 309 310 311 312 313 314 314 315 317 317 318 319 319 320 321 322 323 323 323 322 321 321 321 321 320 319 318 317 316 316 315 315 315 315 314 313 312
257 259 259 259 259 260 262 262 261 261 262 263 265 265 265 265 266 268 270 273 276 279 282 283 285 287 289 291 293 293 293 293 292 291 289 288 288 289 289 290 291 292 293 294 297 299 301 302 302 303 304 305 306 306 307 307 308 309 309 311 311 312 314 315 316 316 315 314 314 315 315 315 315 314 314 313 313 313 313 313 313 312 312 311 310
255 257 258 258 259 260 261 262 262 262 262 263 264 266 266 266 266 267 269 272 275 277 278 280 281 283 284 286 288 289 291 291 290 289 288 287 286 286 287 287 288 289 289 291 292 293 294 295 295 296 297 297 297 297 298 298 300 301 302 303 304 306 307 308 309 308 307 307 308 308 308 308 308 308 307 308 307 307 307 307 307 307 307 306 306
254 256 257 258 259 260 261 262 263 263 263 263 264 265 267 267 267 267 268 270 273 275 275 276 277 279 281 281 283 285 287 287 287 288 288 287 286 285 285 285 285 286 287 287 288 288 288 289 289 290 291 291 291 291 292 293 294 295 296 297 298 299 301 302 302 302 302 302 302 302 302 302 302 302 302 302 302 302 302 302 302 302 302 301 301
254 255 257 258 260 261 262 262 263 264 265 264 265 265 266 268 267 266 267 269 271 272 273 273 274 276 277 278 279 280 282 283 285 287 288 288 287 286 284 283 283 283 284 284 284 284 284 284 285 286 286 287 287 288 289 290 291 291 291 292 293 294 295 296 297 298 298 298 298 298 298 298 298 298 298 298 298 298 298 299 298 298 298 297 297
254 255 257 258 260 261 263 263 264 264 265 265 265 265 265 266 266 266 267 268 269 271 272 272 273 274 275 277 277 277 278 280 282 284 286 288 288 287 286 284 283 282 282 281 281 281 282 282 283 284 284 284 285 286 287 287 288 289 289 289 290 291 292 292 293 294 294 294 294 294 294 294 294 294 295 295 295 295 295 295 295 295 294 294 293
254 255 256 257 259 261 263 264 264 264 265 264 264 264 264 264 264 266 267 268 269 270 271 272 273 273 275 276 277 277 277 278 280 281 284 285 286 286 286 285 284 282 281 280 280 280 280 280 281 282 282 283 283 284 285 286 287 287 288 288 288 288 288 288 288 289 290 290 290 290 291 291 291 291 291 292 292 292 292 292 292 291 291 290 290
255 255 256 257 258 260 261 263 264 264 264 263 263 264 264 265 265 265 265 267 268 269 270 271 271 272 273 274 275 276 276 276 277 279 280 282 283 284 284 284 283 282 281 281 280 280 279 280 280 280 281 281 282 282 283 283 284 284 284 285 285 285 285 285 286 286 286 287 287 288 288 288 288 288 289 289 289 289 289 289 289 289 289 288 288
256 255 256 257 257 259 260 261 263 263 263 263 264 265 265 265 266 266 265 265 266 267 268 269 269 270 271 272 273 274 274 275 276 277 277 278 279 281 281 282 282 282 282 282 281 280 280 280 280 280 281 281 281 281 281 281 281 281 281 282 282 283 284 284 285 285 285 286 286 286 287 287 287 287 287 287 287 287 287 287 287 287 287 287 287
257 257 256 257 257 258 259 260 261 262 263 264 265 265 265 265 266 267 266 265 264 265 266 267 268 269 270 271 272 273 273 274 274 275 275 276 277 278 279 280 281 281 281 281 281 281 281 281 280 280 280 280 280 280 280 280 281 281 281 281 282 282 283 283 283 284 284 285 285 285 285 285 285 285 285 285 285 285 285 285 285 285 285 285 285
257 258 258 257 257 257 258 259 260 261 263 264 265 265 265 266 266 267 266 265 264 264 264 265 267 268 269 270 271 272 273 273 273 273 274 274 275 276 276 278 278 279 280 280 280 280 280 280 280 279 279 280 280 280 281 281 281 281 282 282 282 282 282 283 283 283 284 284 284 284 284 283 284 284 284 284 284 284 284 284 284 284 284 285 285
256 257 258 258 257 257 258 259 260 261 262 263 264 265 265 265 266 266 266 265 264 264 263 264 265 266 268 269 270 271 272 272 272 273 273 273 274 275 275 276 276 277 277 277 278 278 279 279 279 279 279 279 280 280 281 281 281 281 282 282 282 283 283 283 283 283 283 283 283 283 283 283 283 283 283 283 283 283 283 283 283 283 283 284 284
255 256 257 257 257 257 258 259 260 260 261 262 263 264 264 265 266 266 266 265 265 264 264 264 264 265 266 268 269 270 271 271 272 272 273 273 273 273 274 274 275 275 275 275 275 276 277 278 279 279 279 279 279 279 280 280 280 281 281 282 282 282 282 282 283 283 282 282 282 282 281 282 282 282 282 283 283 283 283 283 283 283 282 282 282
254 255 256 257 257 257 258 259 259 260 260 261 262 262 264 264 265 265 265 265 265 264 265 265 265 266 267 267 269 270 271 271 272 272 273 273 273 273 273 274 274 274 274 274 274 274 275 276 277 278 278 279 279 279 280 280 280 280 281 281 281 281 282 282 282 282 281 281 281 281 281 282 282 282 282 283 283 283 283 282 282 282 281 281 281
253 254 256 257 257 258 258 258 258 259 260 260 261 262 263 264 265 265 265 265 264 265 265 266 267 268 268 268 269 269 270 271 271 272 272 273 273 274 274 274 274 274 274 274 274 274 274 275 275 276 276 277 278 279 279 280 280 280 281 281 281 281 281 281 281 281 281 280 281 281 281 282 282 282 282 282 282 282 282 282 282 281 281 281 281
252 253 255 256 257 258 258 258 258 258 259 260 261 262 263 264 264 264 264 264 264 265 266 267 268 269 269 269 269 269 270 271 271 271 271 272 272 273 274 274 275 275 275 274 274 274 274 274 274 275 275 276 277 278 278 279 279 279 280 280 280 280 280 281 281 280 280 280 280 280 281 281 281 281 281 281 281 281 281 281 281 281 281 281 280
251 252 253 255 256 257 257 257 258 258 258 259 261 262 262 263 264 264 264 264 265 265 266 267 268 269 269 270 270 270 270 271 271 271 270 271 272 272 273 274 275 275 275 275 275 275 275 275 275 275 276 276 277 277 277 278 278 278 279 279 279 279 280 280 280 280 280 280 280 280 280 280 280 280 281 281 280 280 280 280 280 280 280 280 280
251 251 252 254 255 255 256 256 257 257 258 259 260 261 262 263 264 264 264 265 265 266 267 268 268 269 269 269 270 270 270 270 270 270 270 270 271 272 273 273 274 274 275 275 275 275 275 275 275 276 276 277 277 278 278 278 279 279 279 279 279 279 280 280 280 280 281 281 281 281 281 281 281 281 282 282 281 281 281 281 281 281 281 280 280
251 251 251 252 253 254 255 256 257 258 258 259 260 261 262 263 264 264 265 266 266 267 267 268 269 269 269 269 269 270 270 270 270 270 270 270 271 272 273 273 274 273 273 274 275 276 276 276 276 276 277 277 278 278 278 279 279 280 280 280 280 281 281 281 281 281 281 281 282 282 283 283 283 283 283 284 284 283 283 283 283 282 282 281 281
250 250 250 250 252 254 255 256 257 258 259 260 260 261 261 262 263 264 265 265 266 267 267 268 269 269 269 269 269 269 269 270 270 271 271 271 272 272 273 273 273 273 273 273 274 276 276 277 277 277 277 277 278 278 279 279 280 281 281 282 282 282 282 282 282 282 283 283 283 283 284 284 284 284 285 285 285 285 284 284 283 282 282 282 282
249 249 249 250 252 253 254 256 256 257 258 259 260 261 262 262 263 264 264 265 266 267 267 267 268 268 269 269 269 269 269 270 271 271 272 272 272 273 273 273 273 273 273 273 274 275 276 277 277 278 278 278 279 279 280 280 281 281 282 282 282 283 283 283 283 283 284 284 284 284 284 285 285 285 285 285 285 285 285 284 284 283 283 283 283
248 249 249 250 251 252 254 255 255 256 257 258 259 260 261 262 263 264 265 265 266 267 266 267 267 267 268 268 269 269 269 270 271 272 273 273 273 273 273 273 273 273 273 273 274 275 276 276 277 278 278 279 280 280 280 281 281 281 282 282 282 283 283 283 283 284 284 284 284 285 285 286 286 286 286 286 286 285 285 285 285 284 284 284 284
249 249 249 249 251 252 254 255 256 256 257 257 258 259 260 262 263 264 265 265 265 266 266 266 266 267 267 268 269 270 271 272 273 273 273 273 273 273 273 273 272 273 273 273 274 275 275 276 277 278 279 279 279 280 280 280 280 281 281 282 282 283 283 284 284 285 285 285 286 286 286 286 286 286 286 286 286 286 286 285 285 285 284 284 284
249 250 250 250 251 252 253 255 256 257 257 258 258 260 261 262 263 263 264 264 264 265 265 266 267 267 268 269 270 271 272 273 274 274 273 272 272 272 272 272 272 272 273 273 274 274 275 276 277 278 278 278 279 279 279 280 280 281 281 282 282 283 283 284 285 285 286 286 286 286 286 286 286 286 286 286 286 286 285 285 285 284 284 283 283
248 250 250 251 251 251 252 253 255 256 257 258 259 260 261 261 262 262 262 263 263 264 265 266 267 268 269 270 271 272 273 273 273 273 272 272 272 272 272 272 272 273 273 274 274 274 275 276 276 277 277 278 278 279 279 280 280 281 281 282 282 283 283 284 284 285 286 286 286 286 286 286 286 286 286 286 285 285 285 284 284 284 283 283 282
246 248 249 250 250 250 251 252 254 255 257 258 259 260 260 261 260 259 260 262 263 264 265 267 268 269 270 271 272 272 272 272 272 272 272 272 272 272 272 273 273 273 273 274 275 275 276 276 276 277 277 278 278 279 279 280 280 281 281 282 282 283 283 284 284 284 285 285 285 286 285 285 285 285 285 285 285 284 284 284 284 283 283 283 282
244 246 247 248 249 250 250 252 253 254 256 257 258 259 259 259 259 259 260 261 263 264 266 267 268 269 270 271 271 271 271 271 271 271 271 271 272 272 272 272 273 273 274 274 275 275 276 276 277 277 278 278 278 279 280 280 281 281 282 282 282 283 283 283 284 284 284 285 285 285 285 285 285 285 285 285 284 284 284 284 283 283 283 283 283
243 244 246 247 248 250 251 251 253 254 255 257 258 259 259 259 260 260 261 262 263 265 266 267 268 269 270 271 271 271 271 271 270 270 271 271 271 272 272 272 273 274 274 274 274 275 275 276 276 277 278 278 279 279 280 281 281 282 282 283 283 283 284 284 284 284 285 285 285 285 285 285 285 285 285 285 285 284 284 284 284 284 284 284 283
242 243 245 247 248 250 251 252 253 253 254 256 257 258 258 259 260 261 262 264 265 266 267 268 269 269 270 270 270 269 269 269 269 269 269 270 270 271 272 272 273 273 273 273 273 274 274 275 275 276 277 278 279 280 280 281 282 282 283 283 284 284 285 285 285 285 285 285 285 285 286 286 286 287 287 287 287 287 287 287 287 287 286 285 285
242 243 244 246 247 249 251 252 253 253 254 255 256 257 257 258 259 260 262 264 266 267 267 267 268 268 268 268 268 268 268 268 268 268 269 269 269 270 271 271 272 272 272 273 273 274 274 275 276 277 277 278 279 280 281 281 282 283 284 284 285 285 285 285 285 286 286 286 287 287 287 287 288 289 289 289 290 290 290 289 289 289 288 288 287
243 243 244 245 247 248 249 250 251 252 253 254 254 255 255 256 257 258 260 262 264 265 266 266 267 266 266 266 267 267 268 268 268 269 269 269 269 269 269 270 270 271 272 273 274 275 275 276 277 278 279 280 280 281 281 282 283 284 284 284 285 285 285 286 286 287 287 288 289 289 289 290 290 290 290 291 291 291 291 291 290 290 289 289 289
242 242 243 244 246 247 248 249 250 251 252 252 253 253 254 255 256 257 259 260 262 263 264 264 264 264 264 265 265 266 267 268 268 268 268 268 268 268 269 270 271 272 273 274 275 276 277 278 279 279 280 281 281 282 282 283 284 285 285 285 286 286 287 287 288 288 289 289 290 291 292 292 293 293 293 293 292 292 291 291 291 291 291 292 292
241 242 242 243 244 246 247 248 249 250 250 251 251 252 253 254 255 257 258 258 259 260 261 261 262 263 263 264 265 265 266 266 267 268 267 267 268 269 270 271 272 273 274 275 276 277 278 279 279 280 281 281 282 283 284 285 285 286 286 287 287 287 288 288 288 289 290 291 291 292 293 293 294 295 295 295 295 294 294 294 294 294 294 294 294
241 241 242 243 244 245 246 247 248 249 249 250 250 250 251 252 253 254 256 256 257 258 259 260 261 262 263 264 264 265 265 265 266 266 267 268 269 270 271 272 273 274 275 276 277 278 279 279 280 281 281 282 283 284 285 285 286 286 286 287 287 288 288 289 290 291 291 292 293 293 294 295 295 296 296 296 296 296 295 295 295 295 295 294 294
Height
10904 10904 10904 10904 10903 10903 10902 10901 10900 10900 10899 10899 10899 10898 10897 10897 10896 10895 10894 10894 10893 10893 10893 10892 10891 10891 10890 10890 10890 10891 10891 10891 10892 10892 10893 10894 10894 10893 10893 10893 10893 10893 10892 10892 10891 10891 10891 10890 10890 10889 10888 10887 10887 10886 10885 10884 10883 10883 10882 10881 10880 10879 10879 10878 10878 10877 10877 10877 10877 10877 10877 10877 10877 10877 10877 10877 10877 10877 10877 10877 10877 10876 10876 10876 10876
10903 10904 10904 10904 10903 10903 10902 10901 10901 10900 10900 10899 10899 10898 10898 10897 10896 10896 10895 10894 10894 10893 10893 10892 10892 10891 10891 10890 10890 10890 10890 10891 10891 10891 10892 10893 10893 10892 10892 10892 10892 10892 10891 10891 10890 10890 10889 10889 10889 10889 10888 10887 10886 10885 10884 10884 10883 10882 10882 10881 10881 10880 10879 10878 10877 10877 10877 10877 10876 10876 10876 10876 10876 10876 10876 10876 10876 10876 10876 10876 10876 10876 10875 10875 10875
10902 10903 10903 10903 10903 10903 10902 10902 10901 10900 10900 10899 10899 10899 10898 10898 10897 10896 10896 10895 10894 10894 10894 10893 10892 10892 10891 10891 10891 10891 10890 10890 10890 10891 10891 10891 10891 10891 10891 10891 10891 10891 10890 10889 10889 10889 10888 10888 10888 10887 10887 10886 10885 10884 10884 10883 10883 10882 10881 10881 10881 10880 10879 10879 10878 10877 10876 10876 10876 10875 10875 10875 10875 10875 10875 10875 10875 10875 10875 10875 10875 10875 10875 10874 10874
10901 10902 10902 10902 10902 10902 10902 10902 10901 10900 10900 10900 10899 10899 10898 10898 10897 10897 10896 10896 10895 10895 10894 10894 10893 10892 10892 10891 10891 10891 10891 10890 10890 10890 10890 10890 10890 10889 10889 10890 10890 10890 10889 10889 10888 10888 10887 10887 10886 10886 10885 10885 10884 10884 10883 10883 10882 10881 10881 10881 10880 10880 10879 10879 10878 10877 10876 10876 10876 10875 10875 10874 10874 10874 10874 10874 10874 10874 10874 10874 10874 10874 10873 10873 10873
10900 10900 10900 10901 10901 10901 10901 10901 10901 10900 10900 10899 10899 10898 10898 10898 10897 10897 10897 10896 10896 10895 10895 10894 10894 10893 10893 10892 10891 10891 10891 10890 10890 10889 10889 10889 10889 10888 10888 10888 10889 10889 10888 10888 10887 10886 10886 10885 10885 10885 10884 10884 10883 10883 10882 10882 10881 10881 10880 10880 10880 10879 10878 10878 10878 10877 10876 10876 10875 10875 10874 10873 10873 10873 10873 10873 10873 10873 10872 10872 10872 10872 10872 10872 10871
10898 10899 10899 10899 10899 10899 10900 10900 10900 10900 10900 10899 10899 10898 10898 10897 10897 10897 10897 10896 10896 10896 10895 10894 10894 10894 10893 10893 10892 10891 10891 10890 10890 10889 10889 10888 10888 10887 10887 10888 10888 10888 10887 10887 10886 10885 10885 10884 10884 10883 10883 10882 10882 10882 10881 10881 10880 10880 10880 10879 10879 10879 10878 10877 10877 10877 10876 10876 10875 10875 10874 10873 10873 10872 10872 10872 10871 10871 10871 10871 10871 10871 10870 10870 10870
10897 10897 10897 10898 10898 10898 10898 10899 10899 10899 10899 10899 10898 10898 10897 10897 10897 10896 10896 10896 10896 10896 10895 10895 10894 10894 10893 10893 10892 10891 10891 10890 10889 10889 10888 10888 10887 10887 10887 10887 10887 10886 10886 10885 10885 10884 10883 10883 10882 10882 10881 10881 10881 10880 10880 10880 10879 10879 10879 10878 10878 10878 10877 10876 10876 10876 10875 10875 10874 10874 10874 10873 10872 10872 10871 10871 10870 10870 10870 10869 10869 10869 10869 10868 10868
10894 10895 10895 10896 10896 10897 10897 10897 10898 10898 10898 10898 10898 10897 10897 10896 10896 10896 10895 10895 10895 10895 10895 10895 10894 10894 10893 10893 10892 10892 10891 10890 10889 10889 10888 10888 10887 10886 10886 10886 10885 10885 10884 10883 10883 10882 10882 10881 10881 10880 10880 10879 10879 10879 10878 10878 10878 10878 10878 10878 10877 10877 10877 10876 10875 10875 10874 10874 10873 10873 10873 10872 10872 10871 10870 10870 10869 10868 10868 10868 10867 10867 10867 10867 10866
10892 10893 10893 10894 10895 10895 10895 10896 10896 10896 10896 10896 10897 10896 10896 10896 10895 10895 10895 10895 10894 10894 10894 10894 10894 10894 10893 10893 10892 10892 10891 10890 10889 10889 10888 10887 10887 10886 10886 10885 10884 10883 10883 10882 10881 10881 10880 10880 10879 10879 10879 10878 10878 10877 10877 10877 10877 10877 10877 10877 10877 10876 10875 10875 10874 10874 10873 10873 10872 10872 10871 10871 10870 10870 10869 10869 10868 10867 10867 10866 10866 10865 10865 10865 10864
10889 10890 10891 10892 10893 10893 10893 10894 10894 10895 10895 10895 10895 10895 10895 10895 10894 10894 10894 10894 10894 10893 10893 10893 10894 10893 10893 10893 10892 10892 10891 10890 10890 10889 10888 10887 10886 10886 10885 10885 10884 10883 10882 10881 10881 10880 10879 10879 10878 10878 10878 10877 10877 10876 10876 10876 10875 10875 10875 10875 10875 10875 10874 10874 10873 10873 10872 10871 10871 10870 10870 10869 10869 10868 10867 10867 10866 10866 10865 10865 10864 10863 10863 10862 10862
10887 10888 10889 10889 10890 10891 10891 10892 10892 10893 10893 10893 10894 10894 10894 10894 10893 10893 10893 10893 10893 10892 10892 10893 10893 10893 10892 10892 10892 10891 10891 10890 10890 10889 10888 10887 10886 10886 10885 10884 10884 10883 10882 10881 10880 10879 10879 10878 10878 10877 10876 10876 10876 10875 10875 10875 10874 10874 10873 10873 10873 10873 10872 10872 10872 10871 10871 10870 10869 10869 10868 10867 10867 10866 10865 10865 10865 10864 10864 10863 10862 10862 10861 10860 10860
10884 10886 10886 10887 10888 10888 10888 10889 10890 10890 10891 10891 10892 10892 10892 10892 10892 10892 10891 10891 10891 10891 10891 10892 10892 10892 10892 10891 10891 10891 10890 10890 10889 10889 10888 10888 10887 10886 10885 10885 10884 10883 10882 10881 10880 10879 10878 10878 10877 10876 10876 10875 10875 10874 10874 10873 10873 10872 10872 10871 10871 10870 10870 10870 10870 10870 10869 10868 10868 10867 10866 10866 10865 10864 10864 10863 10862 10862 10861 10861 10860 10860 10859 10858 10858
10881 10883 10883 10884 10885 10885 10885 10886 10887 10888 10889 10889 10890 10890 10891 10891 10890 10890 10890 10890 10890 10890 10890 10890 10890 10890 10890 10890 10890 10890 10889 10889 10889 10888 10888 10887 10887 10886 10885 10884 10884 10883 10882 10881 10880 10879 10878 10878 10877 10876 10875 10874 10874 10873 10873 10872 10872 10871 10871 10870 10870 10869 10868 10868 10868 10867 10867 10867 10866 10865 10865 10864 10863 10862 10862 10861 10861 10860 10859 10859 10858 10858 10857 10856 10856
10878 10880 10880 10881 10881 10882 10882 10883 10884 10885 10886 10887 10888 10888 10888 10889 10888 10888 10888 10889 10889 10889 10889 10889 10889 10889 10889 10889 10889 10889 10888 10888 10888 10888 10887 10887 10886 10885 10885 10884 10883 10882 10881 10881 10880 10879 10878 10877 10876 10876 10875 10874 10873 10872 10872 10871 10871 10870 10870 10869 10868 10867 10867 10866 10866 10866 10865 10865 10864 10864 10863 10862 10862 10861 10860 10860 10859 10858 10858 10857 10856 10856 10855 10854 10854
10875 10877 10877 10877 10878 10879 10879 10880 10881 10882 10883 10884 10885 10886 10886 10886 10886 10886 10886 10887 10887 10887 10887 10887 10887 10887 10887 10887 10888 10887 10887 10887 10887 10887 10886 10886 10885 10885 10884 10883 10882 10882 10881 10880 10879 10878 10878 10877 10876 10875 10875 10874 10873 10872 10871 10871 10870 10869 10869 10868 10867 10867 10866 10866 10865 10865 10864 10863 10863 10862 10862 10861 10860 10860 10859 10858 10857 10856 10856 10855 10855 10854 10853 10853 10852
10872 10873 10873 10874 10874 10875 10876 10877 10878 10879 10880 10881 10882 10883 10883 10884 10884 10884 10884 10885 10885 10885 10885 10885 10885 10885 10885 10885 10885 10886 10886 10885 10885 10885 10885 10885 10884 10883 10883 10882 10881 10881 10880 10879 10879 10878 10877 10876 10875 10875 10874 10874 10873 10872 10871 10870 10870 10869 10868 10867 10867 10866 10865 10865 10864 10864 10863 10862 10862 10861 10860 10859 10859 10858 10857 10856 10856 10855 10854 10853 10853 10852 10852 10851 10850
10867 10869 10869 10870 10871 10871 10873 10874 10875 10876 10877 10878 10879 10880 10880 10881 10881 10881 10882 10882 10883 10883 10883 10883 10884 10883 10883 10883 10883 10883 10883 10884 10883 10883 10883 10883 10882 10882 10881 10881 10880 10879 10879 10878 10878 10877 10876 10875 10875 10874 10874 10873 10872 10871 10870 10870 10869 10868 10867 10866 10866 10865 10865 10864 10864 10863 10862 10861 10861 10860 10859 10858 10857 10857 10856 10855 10854 10853 10852 10852 10851 10851 10850 10849 10849
10862 10864 10865 10866 10867 10867 10869 10870 10871 10872 10873 10874 10875 10876 10876 10877 10878 10879 10879 10880 10880 10881 10881 10881 10881 10881 10881 10881 10881 10881 10881 10881 10881 10881 10881 10881 10880 10880 10880 10879 10879 10878 10878 10877 10876 10876 10875 10874 10874 10873 10873 10872 10871 10870 10869 10869 10868 10867 10866 10865 10865 10864 10864 10863 10863 10862 10861 10860 10860 10859 10858 10857 10856 10856 10855 10854 10853 10852 10851 10850 10850 10849 10848 10847 10846
10857 10859 10861 10862 10863 10864 10865 10866 10867 10869 10870 10871 10871 10872 10872 10873 10874 10875 10876 10877 10878 10878 10879 10879 10879 10879 10879 10879 10879 10878 10878 10878 10878 10878 10878 10878 10878 10878 10878 10877 10877 10876 10876 10875 10875 10874 10873 10873 10872 10872 10871 10870 10870 10869 10868 10867 10867 10866 10865 10864 10863 10863 10863 10862 10862 10861 10860 10859 10858 10858 10857 10856 10855 10854 10853 10852 10851 10850 10849 10849 10848 10847 10846 10845 10844
10852 10854 10856 10857 10859 10860 10861 10862 10863 10865 10866 10867 10868 10868 10868 10869 10870 10872 10873 10874 10875 10875 10876 10876 10876 10876 10876 10876 10876 10876 10876 10876 10875 10875 10876 10876 10876 10876 10875 10875 10875 10874 10874 10874 10873 10872 10872 10871 10870 10870 10869 10868 10868 10867 10866 10865 10865 10864 10863 10863 10862 10862 10861 10861 10860 10859 10858 10857 10856 10856 10855 10854 10853 10852 10851 10850 10849 10848 10847 10847 10846 10845 10844 10843 10842
10848 10849 10851 10853 10854 10856 10857 10858 10859 10861 10862 10863 10864 10864 10865 10865 10866 10868 10869 10871 10872 10872 10872 10872 10872 10872 10873 10873 10873 10873 10873 10873 10872 10872 10873 10873 10873 10873 10873 10873 10872 10872 10872 10871 10871 10870 10869 10868 10868 10868 10867 10866 10865 10864 10864 10863 10863 10862 10862 10861 10860 10860 10860 10859 10858 10857 10856 10855 10854 10853 10852 10851 10850 10849 10848 10847 10846 10846 10845 10844 10843 10843 10842 10841 10839
10842 10844 10847 10849 10850 10851 10853 10854 10855 10857 10858 10859 10860 10861 10861 10861 10862 10863 10865 10867 10868 10868 10869 10869 10868 10869 10869 10870 10870 10870 10870 10869 10869 10869 10870 10870 10870 10870 10870 10870 10870 10869 10869 10869 10868 10867 10866 10865 10865 10865 10865 10863 10862 10862 10861 10861 10861 10860 10859 10858 10858 10858 10857 10857 10856 10855 10853 10852 10852 10851 10850 10848 10847 10846 10845 10844 10844 10843 10842 10841 10840 10839 10838 10837 10836
10838 10840 10842 10844 10845 10847 10849 10850 10852 10853 10854 10855 10855 10856 10857 10857 10858 10860 10862 10863 10863 10864 10865 10865 10865 10865 10865 10866 10866 10866 10866 10866 10866 10866 10866 10866 10866 10866 10866 10866 10866 10866 10866 10865 10865 10864 10863 10862 10862 10862 10862 10860 10860 10859 10859 10858 10858 10857 10856 10856 10855 10855 10855 10854 10853 10852 10851 10850 10849 10848 10847 10846 10844 10843 10842 10841 10840 10840 10839 10838 10837 10835 10834 10833 10832
10834 10836 10838 10839 10841 10843 10845 10846 10847 10849 10849 10850 10850 10851 10852 10853 10855 10856 10858 10859 10860 10860 10860 10860 10860 10861 10861 10862 10862 10862 10862 10862 10862 10862 10862 10863 10862 10862 10862 10863 10862 10862 10862 10861 10861 10860 10860 10859 10859 10859 10858 10857 10857 10856 10856 10855 10855 10854 10853 10852 10852 10852 10852 10851 10850 10849 10848 10846 10845 10844 10843 10842 10841 10840 10839 10838 10837 10836 10835 10834 10833 10831 10830 10829 10828
10830 10831 10832 10834 10837 10839 10840 10842 10843 10843 10844 10844 10844 10846 10848 10849 10851 10852 10854 10855 10856 10856 10856 10856 10856 10856 10857 10857 10857 10857 10858 10858 10858 10858 10858 10858 10858 10858 10858 10858 10858 10858 10858 10857 10857 10856 10856 10856 10856 10855 10855 10854 10854 10853 10852 10852 10851 10850 10850 10849 10849 10848 10848 10848 10847 10846 10844 10843 10842 10841 10840 10839 10838 10836 10836 10835 10833 10833 10832 10830 10829 10827 10825 10824 10823
10824 10825 10827 10830 10832 10834 10836 10837 10837 10837 10838 10839 10840 10842 10843 10844 10846 10848 10850 10851 10851 10852 10852 10852 10852 10852 10852 10853 10853 10853 10853 10853 10853 10854 10854 10854 10853 10853 10853 10853 10853 10853 10853 10853 10852 10852 10852 10852 10852 10852 10851 10850 10850 10849 10849 10848 10847 10846 10846 10845 10845 10845 10844 10844 10844 10843 10840 10839 10838 10837 10836 10835 10834 10832 10831 10831 10829 10828 10828 10826 10825 10823 10821 10819 10818
10817 10818 10821 10825 10827 10829 10831 10831 10831 10832 10833 10835 10836 10837 10838 10839 10841 10843 10845 10846 10846 10847 10848 10848 10848 10848 10848 10848 10848 10848 10849 10849 10849 10849 10849 10849 10849 10849 10848 10848 10848 10848 10848 10848 10848 10847 10847 10847 10847 10847 10846 10846 10845 10845 10844 10844 10843 10842 10841 10841 10841 10840 10840 10839 10840 10839 10836 10835 10834 10833 10832 10831 10829 10828 10827 10826 10825 10824 10823 10821 10820 10818 10816 10815 10813
10810 10811 10815 10819 10822 10824 10825 10825 10825 10828 10829 10830 10831 10832 10834 10834 10836 10838 10840 10841 10841 10842 10843 10843 10843 10844 10843 10843 10843 10843 10844 10844 10844 10844 10844 10844 10844 10844 10844 10844 10843 10843 10843 10843 10843 10842 10842 10842 10842 10842 10841 10841 10840 10840 10840 10839 10838 10837 10837 10836 10836 10835 10835 10834 10835 10835 10833 10830 10829 10828 10827 10826 10825 10823 10822 10821 10820 10818 10817 10816 10815 10813 10811 10809 10808
10803 10805 10808 10812 10815 10818 10819 10819 10821 10823 10823 10824 10826 10827 10828 10829 10831 10832 10834 10835 10836 10836 10837 10838 10839 10839 10839 10839 10839 10839 10839 10839 10839 10840 10840 10840 10839 10839 10839 10839 10839 10839 10839 10838 10838 10837 10837 10837 10837 10837 10836 10836 10835 10835 10835 10834 10833 10832 10832 10831 10831 10830 10829 10829 10829 10830 10829 10825 10824 10823 10821 10820 10819 10818 10817 10815 10814 10813 10811 10810 10809 10808 10806 10804 10802
10797 10799 10802 10805 10808 10811 10812 10814 10815 10817 10817 10818 10820 10821 10823 10824 10825 10827 10829 10830 10830 10830 10831 10832 10833 10833 10834 10834 10834 10834 10834 10834 10834 10834 10835 10835 10834 10834 10833 10833 10833 10833 10833 10833 10833 10832 10831 10831 10831 10831 10831 10831 10830 10830 10829 10828 10828 10827 10827 10826 10825 10824 10823 10823 10823 10824 10824 10820 10817 10816 10815 10815 10814 10812 10811 10810 10809 10807 10806 10805 10803 10802 10800 10798 10796
10792 10794 10796 10798 10801 10804 10806 10808 10810 10810 10811 10812 10813 10815 10816 10818 10820 10821 10823 10823 10824 10824 10825 10826 10827 10827 10828 10829 10829 10828 10828 10828 10828 10829 10829 10829 10829 10828 10828 10828 10827 10827 10827 10827 10827 10827 10826 10826 10825 10825 10825 10824 10824 10824 10823 10822 10822 10821 10821 10820 10819 10818 10817 10817 10817 10817 10816 10814 10812 10809 10809 10810 10808 10806 10805 10804 10803 10801 10800 10798 10797 10795 10793 10791 10789
10786 10788 10790 10792 10795 10797 10800 10802 10804 10804 10804 10805 10807 10808 10810 10812 10814 10815 10816 10817 10817 10818 10819 10820 10820 10821 10822 10823 10823 10823 10823 10823 10823 10823 10823 10823 10823 10823 10823 10823 10822 10821 10822 10822 10821 10821 10820 10820 10819 10819 10818 10818 10818 10817 10817 10816 10815 10815 10814 10814 10813 10811 10811 10811 10811 10810 10808 10808 10806 10802 10802 10803 10801 10799 10799 10799 10797 10795 10793 10792 10790 10788 10786 10784 10782
10781 10783 10785 10787 10788 10791 10792 10795 10797 10798 10798 10799 10800 10801 10803 10805 10807 10809 10810 10810 10811 10812 10813 10813 10813 10814 10815 10816 10816 10816 10817 10817 10817 10817 10817 10817 10817 10817 10817 10817 10816 10816 10816 10816 10815 10815 10815 10814 10813 10813 10812 10811 10811 10810 10810 10809 10809 10808 10808 10807 10806 10804 10804 10804 10804 10802 10800 10801 10800 10797 10797 10796 10794 10792 10791 10792 10791 10788 10787 10785 10783 10781 10779 10776 10775
10774 10777 10780 10781 10782 10783 10785 10787 10789 10790 10791 10792 10793 10794 10796 10798 10800 10802 10803 10803 10804 10805 10806 10806 10806 10807 10808 10808 10809 10810 10810 10810 10811 10811 10811 10810 10810 10811 10811 10811 10810 10810 10810 10809 10809 10809 10808 10808 10807 10806 10805 10805 10804 10803 10803 10802 10802 10801 10801 10801 10798 10797 10798 10797 10797 10794 10793 10794 10792 10790 10790 10788 10786 10785 10783 10783 10782 10781 10780 10778 10775 10773 10771 10768 10766
10768 10771 10774 10774 10775 10776 10777 10779 10780 10782 10784 10785 10787 10788 10789 10791 10793 10794 10795 10796 10797 10798 10798 10799 10799 10800 10801 10801 10802 10803 10803 10803 10804 10804 10804 10804 10804 10804 10804 10804 10804 10803 10803 10802 10802 10802 10801 10801 10800 10799 10799 10798 10797 10797 10796 10795 10794 10794 10794 10793 10790 10789 10791 10790 10789 10787 10786 10786 10783 10782 10782 10780 10778 10777 10776 10774 10773 10773 10772 10770 10768 10765 10762 10760 10758
10760 10765 10768 10767 10767 10767 10768 10770 10772 10774 10776 10777 10780 10782 10783 10784 10785 10787 10788 10789 10789 10790 10790 10791 10792 10793 10793 10794 10795 10795 10796 10796 10796 10797 10797 10798 10798 10797 10797 10797 10797 10796 10795 10795 10794 10794 10794 10793 10793 10792 10792 10791 10790 10789 10788 10788 10787 10786 10786 10785 10781 10781 10783 10782 10780 10778 10778 10778 10775 10774 10773 10772 10770 10769 10767 10766 10764 10764 10763 10762 10760 10756 10753 10751 10749
10753 10758 10761 10760 10760 10760 10759 10762 10765 10766 10768 10770 10772 10774 10775 10776 10777 10779 10780 10781 10782 10782 10783 10783 10784 10785 10786 10787 10788 10788 10788 10788 10789 10790 10790 10791 10791 10790 10790 10790 10789 10789 10788 10787 10787 10786 10786 10785 10785 10784 10783 10783 10782 10782 10781 10780 10779 10778 10779 10777 10773 10773 10774 10773 10771 10769 10769 10769 10766 10765 10764 10762 10761 10760 10758 10756 10755 10754 10753 10752 10751 10748 10744 10741 10739
10745 10750 10754 10753 10753 10754 10752 10754 10757 10760 10762 10763 10765 10766 10767 10768 10770 10771 10772 10774 10774 10774 10775 10776 10777 10778 10779 10780 10780 10781 10781 10782 10782 10782 10783 10783 10783 10783 10782 10782 10782 10781 10780 10780 10779 10778 10778 10777 10777 10776 10775 10775 10774 10774 10773 10772 10771 10771 10771 10769 10765 10765 10766 10764 10763 10761 10760 10760 10758 10757 10756 10753 10752 10751 10749 10746 10745 10744 10742 10741 10740 10738 10735 10732 10729
10737 10742 10746 10746 10745 10747 10746 10745 10749 10753 10756 10757 10758 10759 10759 10760 10762 10763 10764 10766 10766 10766 10768 10769 10770 10771 10772 10772 10772 10773 10774 10774 10774 10775 10775 10775 10775 10775 10774 10774 10774 10773 10773 10772 10772 10771 10770 10769 10769 10768 10767 10767 10766 10765 10764 10763 10763 10762 10763 10761 10757 10757 10758 10756 10755 10752 10751 10750 10749 10748 10747 10744 10741 10740 10738 10736 10734 10732 10731 10729 10728 10727 10725 10723 10719
10729 10734 10737 10737 10739 10740 10738 10736 10741 10746 10748 10749 10751 10752 10753 10753 10754 10754 10755 10756 10758 10759 10761 10762 10763 10764 10764 10765 10764 10765 10765 10765 10766 10767 10768 10767 10767 10767 10766 10766 10765 10765 10765 10764 10764 10763 10762 10762 10761 10761 10760 10759 10757 10756 10755 10755 10754 10754 10754 10753 10749 10748 10749 10748 10746 10744 10742 10741 10740 10738 10737 10735 10731 10729 10727 10725 10723 10721 10719 10718 10715 10714 10713 10711 10708
10721 10725 10727 10730 10734 10734 10731 10729 10732 10737 10739 10741 10743 10744 10745 10746 10746 10745 10745 10747 10750 10752 10754 10755 10756 10757 10757 10757 10757 10757 10757 10757 10758 10759 10759 10759 10759 10758 10757 10757 10757 10757 10757 10756 10756 10756 10755 10754 10753 10753 10752 10750 10749 10748 10747 10746 10746 10745 10745 10745 10742 10740 10740 10740 10738 10735 10733 10731 10729 10727 10726 10724 10721 10718 10716 10714 10712 10709 10708 10706 10703 10700 10699 10698 10696
10712 10716 10718 10721 10725 10724 10722 10722 10724 10727 10730 10732 10735 10736 10736 10738 10739 10738 10736 10738 10742 10744 10746 10748 10748 10749 10748 10749 10749 10750 10750 10751 10751 10751 10751 10750 10750 10750 10749 10749 10749 10749 10748 10748 10748 10747 10747 10746 10745 10745 10743 10742 10741 10739 10738 10737 10737 10736 10736 10736 10734 10731 10730 10730 10730 10727 10724 10721 10719 10717 10714 10714 10712 10707 10705 10703 10701 10698 10696 10694 10692 10687 10685 10684 10683
10704 10707 10709 10710 10713 10713 10713 10714 10717 10719 10722 10724 10726 10727 10728 10730 10731 10731 10729 10729 10733 10736 10739 10740 10741 10741 10740 10741 10743 10743 10743 10744 10744 10743 10743 10742 10741 10741 10741 10741 10741 10741 10740 10740 10739 10739 10738 10738 10736 10736 10735 10733 10732 10730 10730 10729 10728 10727 10727 10727 10726 10723 10720 10720 10720 10718 10716 10713 10710 10707 10703 10702 10702 10698 10694 10691 10688 10686 10683 10681 10679 10675 10670 10668 10666
10696 10697 10698 10700 10701 10703 10705 10707 10710 10712 10714 10716 10718 10718 10720 10720 10720 10721 10723 10722 10725 10729 10731 10733 10733 10733 10733 10734 10735 10735 10735 10736 10735 10734 10734 10733 10733 10733 10733 10733 10732 10732 10732 10732 10731 10730 10730 10729 10728 10727 10726 10725 10723 10722 10721 10720 10719 10718 10718 10717 10715 10714 10711 10709 10709 10708 10706 10702 10699 10697 10692 10689 10689 10686 10682 10679 10676 10673 10670 10667 10666 10662 10656 10652 10650
10687 10686 10688 10691 10692 10694 10698 10700 10703 10705 10707 10709 10711 10711 10711 10711 10710 10711 10714 10715 10718 10722 10724 10725 10725 10724 10725 10727 10727 10726 10726 10727 10727 10726 10725 10724 10724 10724 10724 10724 10724 10724 10724 10724 10723 10722 10721 10720 10719 10718 10717 10716 10715 10714 10713 10711 10710 10708 10707 10706 10705 10704 10702 10699 10698 10696 10695 10692 10688 10686 10681 10676 10674 10672 10669 10665 10661 10658 10655 10652 10650 10647 10641 10636 10634
10676 10677 10679 10683 10686 10689 10691 10693 10696 10698 10700 10702 10703 10703 10702 10702 10702 10702 10704 10707 10711 10715 10717 10717 10716 10716 10717 10718 10718 10718 10718 10718 10718 10718 10717 10716 10716 10716 10716 10716 10716 10716 10715 10715 10714 10714 10713 10712 10711 10710 10709 10708 10707 10706 10704 10702 10701 10699 10697 10696 10694 10693 10691 10689 10686 10683 10682 10679 10677 10675 10671 10664 10660 10657 10655 10651 10646 10642 10639 10636 10633 10629 10624 10620 10619
10666 10670 10672 10675 10680 10683 10684 10687 10689 10690 10692 10694 10695 10695 10695 10694 10694 10696 10697 10700 10703 10706 10708 10708 10708 10709 10709 10710 10710 10710 10710 10710 10710 10709 10709 10708 10707 10707 10708 10708 10708 10707 10707 10706 10706 10705 10704 10703 10702 10701 10700 10699 10698 10697 10695 10693 10691 10690 10688 10686 10684 10683 10680 10678 10676 10673 10670 10666 10662 10662 10660 10655 10650 10645 10641 10637 10632 10628 10624 10620 10617 10613 10608 10604 10603
10657 10661 10664 10667 10670 10673 10676 10679 10681 10683 10685 10687 10687 10687 10686 10687 10688 10690 10692 10695 10697 10698 10700 10700 10701 10702 10702 10701 10702 10702 10701 10701 10700 10700 10699 10698 10698 10699 10700 10700 10699 10699 10698 10697 10696 10695 10695 10694 10693 10692 10691 10690 10689 10687 10685 10683 10682 10680 10678 10677 10674 10672 10670 10667 10665 10663 10660 10656 10650 10646 10644 10642 10638 10634 10631 10625 10619 10613 10608 10605 10602 10598 10592 10589 10586
10647 10650 10654 10658 10660 10663 10666 10670 10673 10675 10677 10678 10680 10679 10678 10680 10682 10685 10688 10690 10691 10692 10692 10693 10694 10694 10694 10694 10694 10693 10693 10692 10691 10690 10690 10689 10689 10690 10691 10691 10690 10689 10689 10688 10687 10686 10685 10684 10683 10682 10681 10680 10678 10677 10675 10674 10672 10670 10668 10666 10663 10661 10659 10656 10653 10651 10649 10647 10643 10636 10630 10626 10620 10615 10613 10611 10606 10599 10594 10590 10586 10581 10576 10572 10567
10636 10640 10645 10649 10652 10654 10657 10661 10664 10666 10668 10670 10671 10672 10672 10674 10676 10679 10682 10684 10685 10685 10685 10686 10686 10687 10686 10686 10686 10685 10685 10684 10683 10682 10680 10679 10680 10681 10682 10682 10681 10680 10679 10679 10678 10677 10676 10675 10674 10673 10671 10670 10668 10667 10665 10664 10662 10659 10657 10654 10652 10650 10648 10645 10642 10640 10637 10635 10633 10628 10622 10617 10610 10601 10595 10591 10587 10582 10578 10575 10571 10565 10560 10555 10550
10625 10630 10635 10639 10643 10647 10650 10653 10655 10657 10660 10661 10662 10664 10666 10668 10670 10672 10674 10676 10677 10678 10678 10678 10679 10679 10678 10678 10678 10678 10677 10676 10676 10674 10671 10670 10671 10673 10673 10672 10672 10671 10670 10669 10668 10668 10667 10666 10664 10663 10661 10659 10658 10657 10655 10653 10651 10649 10646 10644 10641 10639 10636 10633 10630 10627 10624 10622 10619 10616 10611 10606 10601 10593 10585 10579 10572 10566 10562 10559 10555 10550 10545 10539 10533